Regional Weather Roundup
Issued by NWS Green Bay, WI

Home | Current Version | Previous Version | Text Only | Print | Product List | Glossary On
Versions: 1 2 3 4 5 6 7 8 9 10 11 12 13 14 15 16 17 18 19 20 21 22 23 24 25 26 27 28 29 30 31 32 33 34 35 36 37 38 39 40 41 42 43 44 45 46 47 48 49 50
000
ASUS43 KGRB 210010
RWRGRB

NORTH-CENTRAL AND NORTHEAST WISCONSIN REGIONAL WEATHER ROUNDUP
NATIONAL WEATHER SERVICE GREEN BAY WI
700 PM CDT SUN APR 20 2014

WIZ005-009-010>012-018-019-210100-
NORTH CENTRAL WISCONSIN

CITY           SKY/WX    TMP DP  RH WIND       PRES   REMARKS
IRONWOOD       CLEAR     59  25  27 N6        29.97S
MANITOWISH WTR CLEAR     61  35  37 N6        30.00R
ARBOR VITAE    CLEAR     62  49  62 S5        30.00
EAGLE RIVER    CLEAR     61  48  62 SW5       29.99S
LAND O LAKES   PTCLDY    61  34  36 N6        30.01R
RHINELANDER    MOCLDY    57  49  74 S7        30.01S
PHILLIPS       CLEAR     62  52  68 S8        29.98R
ANTIGO         CLOUDY    54  50  89 S5        30.02F
TOMAHAWK       CLOUDY    56  49  79 CALM      30.01S
MERRILL        CLOUDY    57  52  84 CALM      30.01S
$$

WIZ013-073-210100-
NORTHEAST WISCONSIN

CITY           SKY/WX    TMP DP  RH WIND       PRES   REMARKS
IRON MOUNTAIN  CLOUDY    58  50  75 S5        29.98F
MARINETTE      CLOUDY    52  46  82 S7        30.03S
OCONTO         CLOUDY    51  48  91 S3        30.03F
$$

WIZ017-030-035>037-045-210100-
CENTRAL WISCONSIN

CITY           SKY/WX    TMP DP  RH WIND       PRES   REMARKS
MEDFORD        CLOUDY    56  53  89 S3        30.00F
WAUSAU         CLOUDY    57  52  83 CALM      30.00F
MOSINEE        CLOUDY    57  54  88 CALM      30.03
MARSHFIELD     CLOUDY    59  54  83 S5        30.01F
WISC RAPIDS    CLOUDY    59  52  77 NW3       30.02F
STEVENS POINT  CLOUDY    57  52  83 CALM      30.02F
WAUPACA        NOT AVBL
SHAWANO        CLOUDY    58  51  77 CALM      30.04S
CLINTONVILLE   CLOUDY    59  52  77 CALM      30.03F
$$

WIZ038-039-048-051-210100-
FOX VALLEY

CITY           SKY/WX    TMP DP  RH WIND       PRES   REMARKS
NWS GREEN BAY  CLOUDY    58  53  84 CALM      30.04F
APPLETON       MOCLDY    55  52  88 CALM      30.03F
OSHKOSH        CLOUDY    55  50  83 CALM      30.02F
FOND DU LAC    CLOUDY    56  48  74 CALM      30.02F
$$

WIZ022-050-052-210100-
EAST CENTRAL WISCONSIN

CITY           SKY/WX    TMP DP  RH WIND       PRES   REMARKS
STURGEON BAY   CLOUDY    46  39  76 S6        30.05F
MANITOWOC      CLOUDY    43  39  86 SE7       30.05F
SHEBOYGAN      CLOUDY    55  41  59 CALM      30.04F
$$

LMZ563-521-522-541>543-210100-
LAKESHORE

STATION/POSITION TIME  TEMP    WIND        PRES    VSBY  WAVE
                       AIR SEA DIR/SP/G                  HT/PER
                 (UTC) (F)     (DEG/KT/KT) (MB)    (MI)  (FT/S)
SHEBOYGAN LKSHOR 0000   44      40/  5/  6 1018.1F
KEWAUNEE LKSHORE 0000   40     160/  6/  7 1018.5S
NORTHPORT PIER   0000   45     160/  5/  9 1017.3S
SISTER BAY LKSHO 0000   49     190/ 11/ 13   N/A
STURGEON BAY CG  0000   40     180/  3     1018.8      6   2
MENOMINEE LKSHOR 0000   42     160/ 10/ 13 1017.7F
$$



USA.gov is the U.S. government's official web portal to all federal, state and local government web resources and services.